CZ-6A DEB, 54299

Orbit data source: Space-Track

CZ-6A DEB, 54299 is space debris in SSO originally from a launch on Fri, 11 Nov 2022 UTC launched from the Taiyaun Space Center, China (TSC). Debris objects in space refer to the collection of defunct objects orbiting the Earth. Examples of debris include non-operational satellites, rocket bodies, and fragments generated from explosions, collisions, or faulty payload assembly.

Loading next visibility...
Identifier
54299, 2022-151AS
Orbit
SSO
Country
Flag of CNCN / PRC
Related business
Manufacturer
SAST
Mission
Spacecraft
Bus & Motor
Unknown
Mass
Unknown
Launch date (UTC)
2022-11-11 (3 years ago)
Launch vehicle
Unknown
Launch site
Taiyaun Space Center, China (TSC)
Object type
Payload
Rocket body
Debris
Shape & HBR
Unknown shape, 0.1 m
Radar Cross Section
Small (<0.1 m²)

Expand to show TLE details & history
Last TLE update: 1 day ago

TLE from 1 day ago
0 CZ-6A DEB
1 54299U 22151AS  26129.48428212  .00000264  00000-0  17927-3 0  9992
2 54299  98.8546 125.9831 0055502  98.1972 262.5497 14.07618903178687
Epoch: 2026-05-09T11:37Z
TLE epoch observation values (Epoch: 2026-05-09T11:37:21.975Z)
Latitude
-0.00003°
Longitude
84.34049°
Altitude
875.859 km
Speed
7.412 km/s
True Right ascension
08h 23m 55s
True Declination
0° 00' 00"
Sunlit
Object was in daylight at epoch
Visualization orbit readout
Latitude
Unknown
Longitude
Unknown
Altitude
Unknown
Speed
Unknown
Apparent Right ascension
Unknown
Apparent Declination
Unknown
Sunlit
N/A
Visualization observer readout
Local Sidereal Time
22:08:58
Azimuth
Unknown
Elevation
Unknown
Doppler factor
Unknown
Orbital elements
Apogee altitude
904.913 km
Perigee altitude
824.514 km
Semi-major axis
7,242.85 km
Eccentricity
0.00555
Inclination
98.8546°
RAAN
125.9831°
Arg. of periapsis
98.1972°
True anomaly
261.91964°
Mean anomaly
262.5497°
Eccentric anomaly
262.23461°
Mean motion
3.5211 °/min
Orbital period
102.24 mins
BSTAR
0.00017927
Loading maneuver chart data...
Computing Atmospheric mass density...
Loading historical data...
Loading historical data...
Loading historical data...
Loading historical data...
Loading historical data...
Loading historical data...
Loading historical data...

Documentation

Showing up to 5 results
|